�v������,�v���f�[�^(L),����(MJ),�����t���O
2003/2/1 0:00,6.085790872,0.227000006,0
2003/2/1 0:15,6.541554689,0.243999996,0
2003/2/1 0:30,6.139410257,0.22900001,0
2003/2/1 0:45,8.364611626,0.312000006,0
2003/2/1 1:00,18.41822943,0.68699999,0
2003/2/1 1:15,24.98659515,0.931999981,0
2003/2/1 1:30,13.72654152,0.512000009,0
2003/2/1 1:45,11.52815008,0.430000007,0
2003/2/1 2:00,6.621983767,0.246999994,0
2003/2/1 2:15,11.31367302,0.42200002,0
2003/2/1 2:30,13.86058974,0.517000005,0
2003/2/1 2:45,27.18498516,1.014,0
2003/2/1 3:00,11.71581745,0.437000006,0
2003/2/1 3:15,0,0,0
2003/2/1 3:30,0,0,0
2003/2/1 3:45,0,0,0
2003/2/1 4:00,0,0,0
2003/2/1 4:15,0,0,0
2003/2/1 4:30,0,0,0
2003/2/1 4:45,30.6702404,1.143999995,0
2003/2/1 5:00,0,0,0
2003/2/1 5:15,0,0,0
2003/2/1 5:30,0,0,0
2003/2/1 5:45,0,0,0
2003/2/1 6:00,0,0,0
2003/2/1 6:15,0,0,0
2003/2/1 6:30,0,0,0
2003/2/1 6:45,0,0,0
2003/2/1 7:00,0,0,0
2003/2/1 7:15,0,0,0
2003/2/1 7:30,26.48793507,0.988000006,0
2003/2/1 7:45,27.18498516,1.014,0
2003/2/1 8:00,27.18498516,1.014,0
2003/2/1 8:15,27.13136578,1.011999995,0
2003/2/1 8:30,10.21447754,0.381000012,0
2003/2/1 8:45,0,0,0
2003/2/1 9:00,0,0,0
2003/2/1 9:15,0,0,0
2003/2/1 9:30,0,0,0
2003/2/1 9:45,0,0,0
2003/2/1 10:00,0,0,0
2003/2/1 10:15,0,0,0
2003/2/1 10:30,0,0,0
2003/2/1 10:45,0,0,0
2003/2/1 11:00,0,0,0
2003/2/1 11:15,0,0,0
2003/2/1 11:30,0,0,0
2003/2/1 11:45,0,0,0
2003/2/1 12:00,0,0,0
2003/2/1 12:15,0,0,0
2003/2/1 12:30,0,0,0
2003/2/1 12:45,0,0,0
2003/2/1 13:00,0,0,0
2003/2/1 13:15,0,0,0
2003/2/1 13:30,0,0,0
2003/2/1 13:45,0,0,0
2003/2/1 14:00,0,0,0
2003/2/1 14:15,0,0,0
2003/2/1 14:30,0,0,0
2003/2/1 14:45,0,0,0
2003/2/1 15:00,0,0,0
2003/2/1 15:15,0,0,0
2003/2/1 15:30,0,0,0
2003/2/1 15:45,0,0,0
2003/2/1 16:00,0,0,0
2003/2/1 16:15,0,0,0
2003/2/1 16:30,0,0,0
2003/2/1 16:45,0,0,0
2003/2/1 17:00,0,0,0
2003/2/1 17:15,0,0,0
2003/2/1 17:30,0,0,0
2003/2/1 17:45,21.36729217,0.797000006,0
2003/2/1 18:00,19.59785462,0.730999977,0
2003/2/1 18:15,18.41823077,0.686999999,0
2003/2/1 18:30,17.21179557,0.64199999,0
2003/2/1 18:45,11.66219878,0.435000017,0
2003/2/1 19:00,0,0,0
2003/2/1 19:15,0,0,0
2003/2/1 19:30,0,0,0
2003/2/1 19:45,9.597855389,0.358000014,0
2003/2/1 20:00,13.56568337,0.505999998,0
2003/2/1 20:15,12.03753352,0.448999993,0
2003/2/1 20:30,6.782841682,0.253000006,0
2003/2/1 20:45,6.032171487,0.225000009,0
2003/2/1 21:00,6.139410257,0.229000003,0
2003/2/1 21:15,6.032171487,0.225000009,0
2003/2/1 21:30,6.890080452,0.256999999,0
2003/2/1 21:45,13.00268126,0.484999993,0
2003/2/1 22:00,15.87131357,0.591999993,0
2003/2/1 22:15,13.72654128,0.511999994,0
2003/2/1 22:30,7.721179723,0.288000003,0
2003/2/1 22:45,11.447721,0.426999986,0
2003/2/1 23:00,0,0,0
2003/2/1 23:15,0,0,0
2003/2/1 23:30,25.20107174,0.939999967,0
2003/2/1 23:45,25.57640695,0.953999995,0
2003/2/2 0:00,0,0,0
2003/2/2 0:15,13.35120678,0.49800001,0
2003/2/2 0:30,14.79892731,0.551999986,0
2003/2/2 0:45,6.595174313,0.245999999,0
2003/2/2 1:00,6.193029403,0.231000006,0
2003/2/2 1:15,12.68096519,0.473000005,0
2003/2/2 1:30,0,0,0
2003/2/2 1:45,0,0,0
2003/2/2 2:00,0,0,0
2003/2/2 2:15,0,0,0
2003/2/2 2:30,0,0,0
2003/2/2 2:45,0,0,0
2003/2/2 3:00,0,0,0
2003/2/2 3:15,0,0,0
2003/2/2 3:30,0,0,0
2003/2/2 3:45,0,0,0
2003/2/2 4:00,0,0,0
2003/2/2 4:15,0,0,0
2003/2/2 4:30,0,0,0
2003/2/2 4:45,0,0,0
2003/2/2 5:00,0,0,0
2003/2/2 5:15,0,0,0
2003/2/2 5:30,0,0,0
2003/2/2 5:45,0,0,0
2003/2/2 6:00,0,0,0
2003/2/2 6:15,0,0,0
2003/2/2 6:30,0,0,0
2003/2/2 6:45,0,0,0
2003/2/2 7:00,0,0,0
2003/2/2 7:15,23.32439613,0.870000006,0
2003/2/2 7:30,27.18498516,1.014,0
2003/2/2 7:45,27.18498516,1.014,0
2003/2/2 8:00,27.18498516,1.014,0
2003/2/2 8:15,18.82037544,0.702000015,0
2003/2/2 8:30,8.525468826,0.317999989,0
2003/2/2 8:45,0,0,0
2003/2/2 9:00,5.120643616,0.191,0
2003/2/2 9:15,31.66219711,1.180999995,0
2003/2/2 9:30,11.23324347,0.419,0
2003/2/2 9:45,27.18498516,1.014,0
2003/2/2 10:00,27.18498516,1.014,0
2003/2/2 10:15,27.18498516,1.014,0
2003/2/2 10:30,27.18498516,1.014,0
2003/2/2 10:45,27.18498516,1.014,0
2003/2/2 11:00,27.10455704,1.011000008,0
2003/2/2 11:15,16.0589819,0.599000007,0
2003/2/2 11:30,24.18230438,0.90199998,0
2003/2/2 11:45,8.525468826,0.317999989,0
2003/2/2 12:00,0,0,0
2003/2/2 12:15,0,0,0
2003/2/2 12:30,0,0,0
2003/2/2 12:45,0,0,0
2003/2/2 13:00,0,0,0
2003/2/2 13:15,0,0,0
2003/2/2 13:30,0,0,0
2003/2/2 13:45,0,0,0
2003/2/2 14:00,0,0,0
2003/2/2 14:15,23.83377934,0.888999999,0
2003/2/2 14:30,24.3967824,0.909999997,0
2003/2/2 14:45,11.6085794,0.433000013,0
2003/2/2 15:00,11.39410186,0.424999997,0
2003/2/2 15:15,11.58176947,0.43200001,0
2003/2/2 15:30,15.7640748,0.587999999,0
2003/2/2 15:45,6.246648788,0.233000003,0
2003/2/2 16:00,6.032171487,0.225000009,0
2003/2/2 16:15,11.26005364,0.419999994,0
2003/2/2 16:30,23.24396706,0.866999984,0
2003/2/2 16:45,9.115280867,0.339999991,0
2003/2/2 17:00,14.45040154,0.538999982,0
2003/2/2 17:15,6.05898118,0.226000004,0
2003/2/2 17:30,6.032171487,0.225000009,0
2003/2/2 17:45,6.032171487,0.225000009,0
2003/2/2 18:00,13.78016138,0.514000006,0
2003/2/2 18:15,0,0,0
2003/2/2 18:30,0,0,0
2003/2/2 18:45,0,0,0
2003/2/2 19:00,0,0,0
2003/2/2 19:15,0,0,0
2003/2/2 19:30,15.14745331,0.564999997,0
2003/2/2 19:45,14.79892802,0.552000008,0
2003/2/2 20:00,6.05898118,0.226000004,0
2003/2/2 20:15,7.989275932,0.298,0
2003/2/2 20:30,6.032171487,0.225000009,0
2003/2/2 20:45,6.032171487,0.225000009,0
2003/2/2 21:00,6.032171487,0.225000009,0
2003/2/2 21:15,6.085790872,0.227000006,0
2003/2/2 21:30,6.085790872,0.227000006,0
2003/2/2 21:45,6.032171487,0.225000009,0
2003/2/2 22:00,6.032171487,0.225000009,0
2003/2/2 22:15,6.032171487,0.225000009,0
2003/2/2 22:30,9.973190308,0.372000009,0
2003/2/2 22:45,0,0,0
2003/2/2 23:00,0,0,0
2003/2/2 23:15,25.52278805,0.951999992,0
2003/2/2 23:30,9.544236183,0.356000006,0
2003/2/2 23:45,6.193029642,0.231000007,0
2003/2/3 0:00,6.997318983,0.261,0
2003/2/3 0:15,22.11796188,0.824999988,0
2003/2/3 0:30,26.13941097,0.975000024,0
2003/2/3 0:45,21.84986591,0.814999997,0
2003/2/3 1:00,20.32171583,0.757999987,0
2003/2/3 1:15,17.31903458,0.645999998,0
2003/2/3 1:30,19.97319031,0.745000005,0
2003/2/3 1:45,0,0,0
2003/2/3 2:00,0,0,0
2003/2/3 2:15,0,0,0
2003/2/3 2:30,0,0,0
2003/2/3 2:45,0,0,0
2003/2/3 3:00,0,0,0
2003/2/3 3:15,0,0,0
2003/2/3 3:30,0,0,0
2003/2/3 3:45,0,0,0
2003/2/3 4:00,0,0,0
2003/2/3 4:15,0,0,0
2003/2/3 4:30,0,0,0
2003/2/3 4:45,0,0,0
2003/2/3 5:00,0,0,0
2003/2/3 5:15,0,0,0
2003/2/3 5:30,0,0,0
2003/2/3 5:45,0,0,0
2003/2/3 6:00,0,0,0
2003/2/3 6:15,0,0,0
2003/2/3 6:30,0,0,0
2003/2/3 6:45,9.97318989,0.372000002,0
2003/2/3 7:00,27.18498516,1.014,0
2003/2/3 7:15,27.18498516,1.014,0
2003/2/3 7:30,24.6648798,0.920000017,0
2003/2/3 7:45,17.58713055,0.655999988,0
2003/2/3 8:00,24.36997271,0.90899998,0
2003/2/3 8:15,23.75335026,0.886000008,0
2003/2/3 8:30,24.31635428,0.90699999,0
2003/2/3 8:45,21.39410162,0.797999978,0
2003/2/3 9:00,0,0,0
2003/2/3 9:15,0,0,0
2003/2/3 9:30,0,0,0
2003/2/3 9:45,0,0,0
2003/2/3 10:00,0,0,0
2003/2/3 10:15,0,0,0
2003/2/3 10:30,0,0,0
2003/2/3 10:45,0,0,0
2003/2/3 11:00,0,0,0
2003/2/3 11:15,0,0,0
2003/2/3 11:30,0,0,0
2003/2/3 11:45,0,0,0
2003/2/3 12:00,0,0,0
2003/2/3 12:15,0,0,0
2003/2/3 12:30,0,0,0
2003/2/3 12:45,0,0,0
2003/2/3 13:00,0,0,0
2003/2/3 13:15,0,0,0
2003/2/3 13:30,0,0,0
2003/2/3 13:45,0,0,0
2003/2/3 14:00,0,0,0
2003/2/3 14:15,0,0,0
2003/2/3 14:30,0,0,0
2003/2/3 14:45,0,0,0
2003/2/3 15:00,0,0,0
2003/2/3 15:15,0,0,0
2003/2/3 15:30,0,0,0
2003/2/3 15:45,0,0,0
2003/2/3 16:00,0,0,0
2003/2/3 16:15,0,0,0
2003/2/3 16:30,0,0,0
2003/2/3 16:45,0,0,0
2003/2/3 17:00,0,0,0
2003/2/3 17:15,0,0,0
2003/2/3 17:30,0,0,0
2003/2/3 17:45,0,0,0
2003/2/3 18:00,13.64611244,0.509000004,0
2003/2/3 18:15,0,0,0
2003/2/3 18:30,0,0,0
2003/2/3 18:45,0,0,0
2003/2/3 19:00,23.72654057,0.884999991,0
2003/2/3 19:15,20.02680922,0.746999979,0
2003/2/3 19:30,18.23056364,0.680000008,0
2003/2/3 19:45,22.94906187,0.856000006,0
2003/2/3 20:00,17.26541519,0.643999994,0
2003/2/3 20:15,6.702412844,0.25,0
2003/2/3 20:30,6.112600564,0.228000008,0
2003/2/3 20:45,9.142091035,0.340999998,0
2003/2/3 21:00,22.14477253,0.826000005,0
2003/2/3 21:15,19.32975864,0.721,0
2003/2/3 21:30,9.865951776,0.368000008,0
2003/2/3 21:45,7.640750886,0.284999997,0
2003/2/3 22:00,8.123324395,0.302999996,0
2003/2/3 22:15,22.86863232,0.852999985,0
2003/2/3 22:30,14.04825711,0.523999996,0
2003/2/3 22:45,10.02680969,0.373999998,0
2003/2/3 23:00,14.63806987,0.546000003,0
2003/2/3 23:15,7.640750646,0.284999997,0
2003/2/3 23:30,11.31367326,0.422000006,0
2003/2/3 23:45,12.30562997,0.459000006,0
2003/2/4 0:00,0,0,0
2003/2/4 0:15,0,0,0
2003/2/4 0:30,0,0,0
2003/2/4 0:45,0,0,0
2003/2/4 1:00,0,0,0
2003/2/4 1:15,0,0,0
2003/2/4 1:30,11.52814961,0.43,0
2003/2/4 1:45,27.18498516,1.014,0
2003/2/4 2:00,26.35388756,0.98299998,0
2003/2/4 2:15,18.0965147,0.674999997,0
2003/2/4 2:30,18.98123336,0.707999989,0
2003/2/4 2:45,26.13940907,0.974999995,0
2003/2/4 3:00,22.76139402,0.849000006,0
2003/2/4 3:15,19.16890049,0.714999988,0
2003/2/4 3:30,16.00536156,0.597000002,0
2003/2/4 3:45,22.06434345,0.823000013,0
2003/2/4 4:00,22.92225218,0.85499999,0
2003/2/4 4:15,21.31367254,0.795000002,0
2003/2/4 4:30,15.41555023,0.575000002,0
2003/2/4 4:45,0,0,0
2003/2/4 5:00,0,0,0
2003/2/4 5:15,0,0,0
2003/2/4 5:30,0,0,0
2003/2/4 5:45,0,0,0
2003/2/4 6:00,0,0,0
2003/2/4 6:15,0,0,0
2003/2/4 6:30,0,0,0
2003/2/4 6:45,0,0,0
2003/2/4 7:00,0,0,0
2003/2/4 7:15,20.50938249,0.765000002,0
2003/2/4 7:30,27.18498516,1.014,0
2003/2/4 7:45,27.18498516,1.014,0
2003/2/4 8:00,14.79892731,0.551999986,0
2003/2/4 8:15,0,0,0
2003/2/4 8:30,0,0,0
2003/2/4 8:45,12.9222517,0.481999993,0
2003/2/4 9:00,0,0,0
2003/2/4 9:15,0,0,0
2003/2/4 9:30,0,0,0
2003/2/4 9:45,0,0,0
2003/2/4 10:00,0,0,0
2003/2/4 10:15,0,0,0
2003/2/4 10:30,0,0,0
2003/2/4 10:45,0,0,0
2003/2/4 11:00,0,0,0
2003/2/4 11:15,24.20911527,0.903000012,0
2003/2/4 11:30,0,0,0
2003/2/4 11:45,0,0,0
2003/2/4 12:00,0,0,0
2003/2/4 12:15,0,0,0
2003/2/4 12:30,1.715817809,0.064000003,0
2003/2/4 12:45,27.18498516,1.014,0
2003/2/4 13:00,27.18498516,1.014,0
2003/2/4 13:15,27.18498516,1.014,0
2003/2/4 13:30,26.67560196,0.995000006,0
2003/2/4 13:45,22.0911522,0.823999971,0
2003/2/4 14:00,0,0,0
2003/2/4 14:15,0,0,0
2003/2/4 14:30,0,0,0
2003/2/4 14:45,0,0,0
2003/2/4 15:00,0,0,0
2003/2/4 15:15,0,0,0
2003/2/4 15:30,0,0,0
2003/2/4 15:45,0,0,0
2003/2/4 16:00,0,0,0
2003/2/4 16:15,16.62198353,0.620000005,0
2003/2/4 16:30,27.18498516,1.014,0
2003/2/4 16:45,22.22520065,0.828999997,0
2003/2/4 17:00,0,0,0
2003/2/4 17:15,25.81769467,0.963000015,0
2003/2/4 17:30,0,0,0
2003/2/4 17:45,0,0,0
2003/2/4 18:00,12.92225146,0.481999994,0
2003/2/4 18:15,27.18498516,1.014,0
2003/2/4 18:30,18.12332344,0.676,0
2003/2/4 18:45,0.241286859,0.009,0
2003/2/4 19:00,14.87935591,0.554999993,0
2003/2/4 19:15,26.46112537,0.987000019,0
2003/2/4 19:30,26.62198353,0.993000001,0
2003/2/4 19:45,26.27345753,0.979999989,0
2003/2/4 20:00,0,0,0
2003/2/4 20:15,0,0,0
2003/2/4 20:30,0.268096507,0.01,0
2003/2/4 20:45,27.10455704,1.011000008,0
2003/2/4 21:00,26.86327076,1.002000004,0
2003/2/4 21:15,26.51474571,0.989000023,0
2003/2/4 21:30,21.34048224,0.795999989,0
2003/2/4 21:45,22.19839191,0.828000009,0
2003/2/4 22:00,20.24128676,0.754999995,0
2003/2/4 22:15,18.52546883,0.690999984,0
2003/2/4 22:30,13.43163514,0.501000002,0
2003/2/4 22:45,14.10187697,0.526000008,0
2003/2/4 23:00,15.49597836,0.577999994,0
2003/2/4 23:15,15.04021454,0.561000005,0
2003/2/4 23:30,21.66219879,0.808000013,0
2003/2/4 23:45,26.91688919,1.004000009,0
2003/2/5 0:00,25.44235897,0.949000001,0
2003/2/5 0:15,10.29490662,0.384000003,0
2003/2/5 0:30,0,0,0
2003/2/5 0:45,0,0,0
2003/2/5 1:00,0,0,0
2003/2/5 1:15,0,0,0
2003/2/5 1:30,0,0,0
2003/2/5 1:45,0,0,0
2003/2/5 2:00,0,0,0
2003/2/5 2:15,0,0,0
2003/2/5 2:30,0,0,0
2003/2/5 2:45,0,0,0
2003/2/5 3:00,0,0,0
2003/2/5 3:15,0,0,0
2003/2/5 3:30,0,0,0
2003/2/5 3:45,0,0,0
2003/2/5 4:00,0,0,0
2003/2/5 4:15,0,0,0
2003/2/5 4:30,0,0,0
2003/2/5 4:45,0,0,0
2003/2/5 5:00,0,0,0
2003/2/5 5:15,0,0,0
2003/2/5 5:30,0,0,0
2003/2/5 5:45,0,0,0
2003/2/5 6:00,0,0,0
2003/2/5 6:15,0,0,0
2003/2/5 6:30,0,0,0
2003/2/5 6:45,0,0,0
2003/2/5 7:00,20.26809549,0.755999998,0
2003/2/5 7:15,27.18498516,1.014,0
2003/2/5 7:30,27.13136578,1.011999995,0
2003/2/5 7:45,26.13941002,0.974999993,0
2003/2/5 8:00,27.05093765,1.009000004,0
2003/2/5 8:15,26.1930294,0.976999997,0
2003/2/5 8:30,23.24396896,0.867000029,0
2003/2/5 8:45,29.2761383,1.091999977,0
2003/2/5 9:00,0,0,0
2003/2/5 9:15,0,0,0
2003/2/5 9:30,0,0,0
2003/2/5 9:45,0,0,0
2003/2/5 10:00,0,0,0
2003/2/5 10:15,0,0,0
2003/2/5 10:30,0,0,0
2003/2/5 10:45,0,0,0
2003/2/5 11:00,0,0,0
2003/2/5 11:15,0,0,0
2003/2/5 11:30,0,0,0
2003/2/5 11:45,0,0,0
2003/2/5 12:00,0,0,0
2003/2/5 12:15,0,0,0
2003/2/5 12:30,0,0,0
2003/2/5 12:45,0,0,0
2003/2/5 13:00,0,0,0
2003/2/5 13:15,0,0,0
2003/2/5 13:30,0,0,0
2003/2/5 13:45,0,0,0
2003/2/5 14:00,0,0,0
2003/2/5 14:15,0,0,0
2003/2/5 14:30,0,0,0
2003/2/5 14:45,0,0,0
2003/2/5 15:00,0,0,0
2003/2/5 15:15,0,0,0
2003/2/5 15:30,0,0,0
2003/2/5 15:45,0,0,0
2003/2/5 16:00,0,0,0
2003/2/5 16:15,0,0,0
2003/2/5 16:30,3.619302988,0.135000005,0
2003/2/5 16:45,27.18498516,1.014,0
2003/2/5 17:00,27.15817642,1.013000012,0
2003/2/5 17:15,27.58713245,1.029000014,0
2003/2/5 17:30,0,0,0
2003/2/5 17:45,0,0,0
2003/2/5 18:00,17.80160856,0.664000005,0
2003/2/5 18:15,0,0,0
2003/2/5 18:30,0,0,0
2003/2/5 18:45,0,0,0
2003/2/5 19:00,22.41286802,0.835999995,0
2003/2/5 19:15,23.02948999,0.858999998,0
2003/2/5 19:30,15.36193037,0.572999999,0
2003/2/5 19:45,6.863270997,0.256000005,0
2003/2/5 20:00,7.506702184,0.280000001,0
2003/2/5 20:15,15.20107222,0.567000002,0
2003/2/5 20:30,7.479892969,0.279000007,0
2003/2/5 20:45,6.997318983,0.261,0
2003/2/5 21:00,8.257372857,0.308000006,0
2003/2/5 21:15,9.034852505,0.336999998,0
2003/2/5 21:30,8.176943779,0.305000007,0
2003/2/5 21:45,13.37801671,0.499000021,0
2003/2/5 22:00,27.13136578,1.011999995,0
2003/2/5 22:15,26.70241261,0.995999991,0
2003/2/5 22:30,30.26809597,1.128999978,0
2003/2/5 22:45,19.38337827,0.723000012,0
2003/2/5 23:00,20.37533617,0.76000002,0
2003/2/5 23:15,11.98391438,0.447000011,0
2003/2/5 23:30,18.31099129,0.682999983,0
2003/2/5 23:45,14.20911503,0.530000001,0
2003/2/6 0:00,17.21179628,0.642000005,0
2003/2/6 0:15,16.56836414,0.617999986,0
2003/2/6 0:30,26.51474571,0.988999992,0
2003/2/6 0:45,24.04825735,0.897000016,0
2003/2/6 1:00,20.88471794,0.778999983,0
2003/2/6 1:15,8.632707596,0.321999997,0
2003/2/6 1:30,0,0,0
2003/2/6 1:45,0,0,0
2003/2/6 2:00,0,0,0
2003/2/6 2:15,0,0,0
2003/2/6 2:30,0,0,0
2003/2/6 2:45,0,0,0
2003/2/6 3:00,0,0,0
2003/2/6 3:15,0,0,0
2003/2/6 3:30,0,0,0
2003/2/6 3:45,0,0,0
2003/2/6 4:00,0,0,0
2003/2/6 4:15,0,0,0
2003/2/6 4:30,0,0,0
2003/2/6 4:45,0,0,0
2003/2/6 5:00,0,0,0
2003/2/6 5:15,0,0,0
2003/2/6 5:30,0,0,0
2003/2/6 5:45,0,0,0
2003/2/6 6:00,0,0,0
2003/2/6 6:15,0,0,0
2003/2/6 6:30,0,0,0
2003/2/6 6:45,0,0,0
2003/2/6 7:00,13.24396753,0.494000003,0
2003/2/6 7:15,27.18498516,1.014,0
2003/2/6 7:30,27.18498516,1.014,0
2003/2/6 7:45,27.18498516,1.014,0
2003/2/6 8:00,27.18498516,1.014,0
2003/2/6 8:15,8.766756058,0.326999992,0
2003/2/6 8:30,0,0,0
2003/2/6 8:45,0,0,0
2003/2/6 9:00,0,0,0
2003/2/6 9:15,0,0,0
2003/2/6 9:30,0,0,0
2003/2/6 9:45,0,0,0
2003/2/6 10:00,0,0,0
2003/2/6 10:15,0,0,0
2003/2/6 10:30,0,0,0
2003/2/6 10:45,0,0,0
2003/2/6 11:00,0,0,0
2003/2/6 11:15,0,0,0
2003/2/6 11:30,0,0,0
2003/2/6 11:45,0,0,0
2003/2/6 12:00,0,0,0
2003/2/6 12:15,0,0,0
2003/2/6 12:30,0,0,0
2003/2/6 12:45,0,0,0
2003/2/6 13:00,0,0,0
2003/2/6 13:15,0,0,0
2003/2/6 13:30,0,0,0
2003/2/6 13:45,0,0,0
2003/2/6 14:00,0,0,0
2003/2/6 14:15,0,0,0
2003/2/6 14:30,0,0,0
2003/2/6 14:45,0,0,0
2003/2/6 15:00,0,0,0
2003/2/6 15:15,0,0,0
2003/2/6 15:30,0,0,0
2003/2/6 15:45,0,0,0
2003/2/6 16:00,0,0,0
2003/2/6 16:15,0,0,0
2003/2/6 16:30,0,0,0
2003/2/6 16:45,26.19302845,0.976999999,0
2003/2/6 17:00,25.76407623,0.961000025,0
2003/2/6 17:15,25.14745283,0.937999993,0
2003/2/6 17:30,25.0670228,0.934999972,0
2003/2/6 17:45,12.11796188,0.451999992,0
2003/2/6 18:00,0,0,0
2003/2/6 18:15,18.57908842,0.693000011,0
2003/2/6 18:30,26.72922325,0.997000008,0
2003/2/6 18:45,0,0,0
2003/2/6 19:00,9.034851819,0.336999987,0
2003/2/6 19:15,25.63002682,0.956,0
2003/2/6 19:30,18.552279,0.692000001,0
2003/2/6 19:45,21.95710468,0.819000005,0
2003/2/6 20:00,18.68632698,0.696999997,0
2003/2/6 20:15,6.300267934,0.235,0
2003/2/6 20:30,21.84986639,0.815000012,0
2003/2/6 20:45,22.94906187,0.856000006,0
2003/2/6 21:00,20.40214443,0.760999992,0
2003/2/6 21:15,14.69168949,0.548000008,0
2003/2/6 21:30,17.6675601,0.658999995,0
2003/2/6 21:45,14.61125994,0.545000002,0
2003/2/6 22:00,17.90884733,0.667999998,0
2003/2/6 22:15,0,0,0
2003/2/6 22:30,0,0,0
2003/2/6 22:45,23.78015995,0.886999995,0
2003/2/6 23:00,25.36192989,0.94599998,0
2003/2/6 23:15,16.35388708,0.609999985,0
2003/2/6 23:30,12.68096542,0.473000006,0
2003/2/6 23:45,12.92225218,0.482000009,0
2003/2/7 0:00,17.18498611,0.640999988,0
2003/2/7 0:15,17.80160856,0.664000004,0
2003/2/7 0:30,16.89008045,0.629999995,0
2003/2/7 0:45,14.90616655,0.556000009,0
2003/2/7 1:00,13.86058951,0.516999989,0
2003/2/7 1:15,14.98659515,0.559000001,0
2003/2/7 1:30,14.69168902,0.547999993,0
2003/2/7 1:45,25.97855234,0.968999982,0
2003/2/7 2:00,13.99463844,0.522000014,0
2003/2/7 2:15,16.40750623,0.611999996,0
2003/2/7 2:30,0,0,0
2003/2/7 2:45,0,0,0
2003/2/7 3:00,0,0,0
2003/2/7 3:15,0,0,0
2003/2/7 3:30,0,0,0
2003/2/7 3:45,0,0,0
2003/2/7 4:00,0,0,0
2003/2/7 4:15,0,0,0
2003/2/7 4:30,0,0,0
2003/2/7 4:45,0,0,0
2003/2/7 5:00,0,0,0
2003/2/7 5:15,0,0,0
2003/2/7 5:30,0,0,0
2003/2/7 5:45,0,0,0
2003/2/7 6:00,0,0,0
2003/2/7 6:15,0,0,0
2003/2/7 6:30,0,0,0
2003/2/7 6:45,0,0,0
2003/2/7 7:00,7.372653961,0.274999999,0
2003/2/7 7:15,0.214477226,0.008,0
2003/2/7 7:30,23.69973159,0.884000019,0
2003/2/7 7:45,23.37801504,0.871999995,0
2003/2/7 8:00,27.18498516,1.014,0
2003/2/7 8:15,9.06166172,0.338,0
2003/2/7 8:30,0,0,0
2003/2/7 8:45,0,0,0
2003/2/7 9:00,0,0,0
2003/2/7 9:15,0,0,0
2003/2/7 9:30,0,0,0
2003/2/7 9:45,0,0,0
2003/2/7 10:00,0,0,0
2003/2/7 10:15,0,0,0
2003/2/7 10:30,0,0,0
2003/2/7 10:45,0,0,0
2003/2/7 11:00,0,0,0
2003/2/7 11:15,0,0,0
2003/2/7 11:30,0,0,0
2003/2/7 11:45,0,0,0
2003/2/7 12:00,0,0,0
2003/2/7 12:15,0,0,0
2003/2/7 12:30,0,0,0
2003/2/7 12:45,0,0,0
2003/2/7 13:00,0,0,0
2003/2/7 13:15,0,0,0
2003/2/7 13:30,0,0,0
2003/2/7 13:45,0,0,0
2003/2/7 14:00,0,0,0
2003/2/7 14:15,0,0,0
2003/2/7 14:30,0,0,0
2003/2/7 14:45,0,0,0
2003/2/7 15:00,0,0,0
2003/2/7 15:15,0,0,0
2003/2/7 15:30,0,0,0
2003/2/7 15:45,0,0,0
2003/2/7 16:00,0,0,0
2003/2/7 16:15,0,0,0
2003/2/7 16:30,0,0,0
2003/2/7 16:45,0,0,0
2003/2/7 17:00,0,0,0
2003/2/7 17:15,16.94369936,0.632,0
2003/2/7 17:30,9.973190308,0.372000009,0
2003/2/7 17:45,0,0,0
2003/2/7 18:00,8.659518242,0.323000014,0
2003/2/7 18:15,27.77479792,1.035999984,0
2003/2/7 18:30,0,0,0
2003/2/7 18:45,0,0,0
2003/2/7 19:00,6.166220188,0.230000004,0
2003/2/7 19:15,15.25469208,0.568999999,0
2003/2/7 19:30,6.353887319,0.237000003,0
2003/2/7 19:45,7.319035053,0.27300001,0
2003/2/7 20:00,13.64611268,0.509000003,0
2003/2/7 20:15,6.112600565,0.228000001,0
2003/2/7 20:30,6.032171487,0.225000009,0
2003/2/7 20:45,6.353887319,0.237000003,0
2003/2/7 21:00,6.139410257,0.22900001,0
2003/2/7 21:15,13.43163562,0.50100001,0
2003/2/7 21:30,20.88471842,0.778999999,0
2003/2/7 21:45,13.00268078,0.484999999,0
2003/2/7 22:00,15.76407528,0.587999999,0
2003/2/7 22:15,20.9383378,0.781000004,0
2003/2/7 22:30,10.02680945,0.373999998,0
2003/2/7 22:45,6.112600565,0.228000001,0
2003/2/7 23:00,7.774799109,0.290000007,0
2003/2/7 23:15,6.139410257,0.229000003,0
2003/2/7 23:30,6.407506704,0.239,0
2003/2/7 23:45,6.461126088,0.241000005,0
2003/2/8 0:00,11.68900824,0.43600002,0
2003/2/8 0:15,6.487935781,0.242,0
2003/2/8 0:30,8.310992002,0.310000003,0
2003/2/8 0:45,8.820375681,0.329000012,0
2003/2/8 1:00,9.89276123,0.368999988,0
2003/2/8 1:15,0,0,0
2003/2/8 1:30,0,0,0
2003/2/8 1:45,0,0,0
2003/2/8 2:00,0,0,0
2003/2/8 2:15,0,0,0
2003/2/8 2:30,0,0,0
2003/2/8 2:45,0,0,0
2003/2/8 3:00,0,0,0
2003/2/8 3:15,0,0,0
2003/2/8 3:30,0,0,0
2003/2/8 3:45,0,0,0
2003/2/8 4:00,0,0,0
2003/2/8 4:15,0,0,0
2003/2/8 4:30,0,0,0
2003/2/8 4:45,0,0,0
2003/2/8 5:00,0,0,0
2003/2/8 5:15,0,0,0
2003/2/8 5:30,7.506702423,0.280000001,0
2003/2/8 5:45,27.18498516,1.014,0
2003/2/8 6:00,26.62198448,0.993,0
2003/2/8 6:15,14.15549564,0.527999997,0
2003/2/8 6:30,0,0,0
2003/2/8 6:45,0,0,0
2003/2/8 7:00,0,0,0
2003/2/8 7:15,0,0,0
2003/2/8 7:30,0,0,0
2003/2/8 7:45,0,0,0
2003/2/8 8:00,0,0,0
2003/2/8 8:15,0,0,0
2003/2/8 8:30,7.560321808,0.282000005,0
2003/2/8 8:45,33.78015995,1.259999991,0
2003/2/8 9:00,0,0,0
2003/2/8 9:15,0,0,0
2003/2/8 9:30,0,0,0
2003/2/8 9:45,0,0,0
2003/2/8 10:00,0,0,0
2003/2/8 10:15,0,0,0
2003/2/8 10:30,0,0,0
2003/2/8 10:45,0,0,0
2003/2/8 11:00,0,0,0
2003/2/8 11:15,0,0,0
2003/2/8 11:30,0,0,0
2003/2/8 11:45,0,0,0
2003/2/8 12:00,0,0,0
2003/2/8 12:15,0,0,0
2003/2/8 12:30,0,0,0
2003/2/8 12:45,0,0,0
2003/2/8 13:00,0,0,0
2003/2/8 13:15,0,0,0
2003/2/8 13:30,0,0,0
2003/2/8 13:45,0,0,0
2003/2/8 14:00,0,0,0
2003/2/8 14:15,0,0,0
2003/2/8 14:30,0,0,0
2003/2/8 14:45,0,0,0
2003/2/8 15:00,0,0,0
2003/2/8 15:15,0,0,0
2003/2/8 15:30,0,0,0
2003/2/8 15:45,0,0,0
2003/2/8 16:00,14.95978498,0.557999999,0
2003/2/8 16:15,27.18498516,1.014,0
2003/2/8 16:30,27.10455704,1.011000008,0
2003/2/8 16:45,12.78820324,0.476999998,0
2003/2/8 17:00,0,0,0
2003/2/8 17:15,0,0,0
2003/2/8 17:30,22.41286755,0.835999996,0
2003/2/8 17:45,17.47989273,0.65200001,0
2003/2/8 18:00,0,0,0
2003/2/8 18:15,0,0,0
2003/2/8 18:30,0,0,0
2003/2/8 18:45,0,0,0
2003/2/8 19:00,0,0,0
2003/2/8 19:15,0,0,0
2003/2/8 19:30,0,0,0
2003/2/8 19:45,7.319035053,0.273000002,0
2003/2/8 20:00,10.99195671,0.409999996,0
2003/2/8 20:15,14.71849918,0.549000025,0
2003/2/8 20:30,0,0,0
2003/2/8 20:45,18.39142124,0.686000015,0
2003/2/8 21:00,23.80697012,0.887999981,0
2003/2/8 21:15,9.222520589,0.344000012,0
2003/2/8 21:30,6.032171487,0.225000009,0
2003/2/8 21:45,6.219839096,0.232000008,0
2003/2/8 22:00,7.640750886,0.284999997,0
2003/2/8 22:15,6.166219711,0.230000004,0
2003/2/8 22:30,6.05898118,0.226000004,0
2003/2/8 22:45,6.166219711,0.230000004,0
2003/2/8 23:00,6.487935543,0.241999998,0
2003/2/8 23:15,6.112600565,0.228000001,0
2003/2/8 23:30,6.032171487,0.225000009,0
2003/2/8 23:45,10.26809669,0.383000001,0
2003/2/9 0:00,0,0,0
2003/2/9 0:15,0,0,0
2003/2/9 0:30,0,0,0
2003/2/9 0:45,0,0,0
2003/2/9 1:00,0,0,0
2003/2/9 1:15,0,0,0
2003/2/9 1:30,0,0,0
2003/2/9 1:45,0,0,0
2003/2/9 2:00,0,0,0
2003/2/9 2:15,0,0,0
2003/2/9 2:30,0,0,0
2003/2/9 2:45,0,0,0
2003/2/9 3:00,0,0,0
2003/2/9 3:15,0,0,0
2003/2/9 3:30,0,0,0
2003/2/9 3:45,0,0,0
2003/2/9 4:00,0,0,0
2003/2/9 4:15,0,0,0
2003/2/9 4:30,0,0,0
2003/2/9 4:45,0,0,0
2003/2/9 5:00,0,0,0
2003/2/9 5:15,0,0,0
2003/2/9 5:30,0,0,0
2003/2/9 5:45,0,0,0
2003/2/9 6:00,0,0,0
2003/2/9 6:15,0,0,0
2003/2/9 6:30,0,0,0
2003/2/9 6:45,0,0,0
2003/2/9 7:00,6.246648788,0.232999995,0
2003/2/9 7:15,27.18498516,1.014,0
2003/2/9 7:30,27.18498516,1.014,0
2003/2/9 7:45,27.18498516,1.014,0
2003/2/9 8:00,26.21984005,0.978000015,0
2003/2/9 8:15,25.01340485,0.932999998,0
2003/2/9 8:30,16.48793507,0.614999995,0
2003/2/9 8:45,0,0,0
2003/2/9 9:00,0,0,0
2003/2/9 9:15,0,0,0
2003/2/9 9:30,15.12064266,0.563999996,0
2003/2/9 9:45,28.57908821,1.066000015,0
2003/2/9 10:00,0,0,0
2003/2/9 10:15,0,0,0
2003/2/9 10:30,0,0,0
2003/2/9 10:45,0,0,0
2003/2/9 11:00,0,0,0
2003/2/9 11:15,0,0,0
2003/2/9 11:30,0,0,0
2003/2/9 11:45,0,0,0